Location: *
(3.1000°S, 67.0000°W)
Time: 03:51:19
(UTC+00:00)

Daily predictions for brighter satellites

Satellite Brightness Start Highest point End
(mag) Time Altitude Azimuth Time Altitude Azimuth Time Altitude Azimuth
Intelsat 5-1 Rocket 2.3 00:02:08 10° W 00:05:18 31° NNW 00:05:29 30° NNW
COSMOS 2428 2.8 00:01:20 10° NNW 00:07:01 78° WSW 00:12:43 10° SSE
Meteor 1-27 4.2 00:02:25 10° N 00:08:14 89° E 00:14:05 10° S
GPS 2-17 Rocket1 3.1 00:06:17 10° WSW 00:10:43 65° NNW 00:11:39 51° NE
Cosmos 2237 Rocket 3.8 00:05:56 10° N 00:17:40 - SE 00:07:21 17° NNE
SeaSat 1 3.1 00:06:49 10° S 00:11:35 55° WSW 00:16:20 10° NW
Milstar 3 4.4 00:07:45 10° NW 00:16:51 47° NE 00:24:18 30° E
ARIANE 5 R/B 4.2 00:16:10 10° W 00:22:46 70° N 01:41:22 10° E
Ariane H10+ 3.6 00:20:59 10° WNW 00:22:05 16° NW 00:22:05 16° NW
Cosmos 2285 Rocket 4.0 00:18:52 10° NNW 00:25:12 84° WSW 00:31:33 10° S
Meteor 2-12 Rocket 4.4 00:20:36 10° S 00:26:40 85° W 00:31:15 19° N
BREEZE-M DEB (TANK) 3.7 00:15:02 10° SSW 00:31:04 58° SE 00:32:00 52° ESE
ARIANE 44L R/B 3.3 00:18:24 10° W 00:31:20 54° NNW 00:31:43 52° N
Cosmos 923 Rocket 3.9 00:26:11 10° S 00:30:54 66° SE 00:30:54 66° SE
ATLAS 5 CENTAUR R/B 3.4 00:25:56 10° NW 00:31:53 48° WSW 00:38:35 10° S
ARIANE 5 R/B 3.8 00:27:39 10° W 00:33:10 75° S 10:06:56 10° E
Meteor 2-3 Rocket 3.5 00:27:49 10° S 00:33:25 80° E 00:33:57 72° NE
Cosmos 1125 Rocket 4.5 00:30:00 10° NNW 00:34:57 46° WSW 00:39:59 10° S
Ariane H10+ 2.4 00:30:49 10° WNW 00:35:16 58° N 00:35:16 58° N
Cosmos 2228 3.7 00:34:57 38° NW 00:36:11 52° W 00:40:18 10° S
NOSS 0 Rocket 4.3 00:30:29 10° NNW 00:36:35 64° WSW 00:42:42 10° S
Resurs 01 Rocket 3.7 00:33:45 10° SSW 00:37:23 26° WSW 00:41:02 10° NW
Maqsat-H 3.1 00:35:02 10° WNW 00:37:09 26° NNW 00:37:09 26° NNW
Cosmos 2034 Rocket 3.8 00:37:33 66° NE 00:38:16 73° E 00:44:33 10° S
Cosmos 1680 Rocket 4.5 00:33:23 10° S 00:36:27 34° SSE 00:36:27 34° SSE
OAO 3 Rocket 3.7 00:38:44 10° SW 00:42:38 57° WSW 00:42:38 57° WSW
CZ-3 Stage 3 4.3 00:42:24 10° NNW 00:43:49 13° NNW 00:43:49 13° NNW
Cosmos 1844 Rocket 3.1 00:42:36 10° SSW 00:48:06 58° WNW 00:49:00 51° NW
USA 234 3.6 00:52:48 49° N 00:52:48 49° N 00:57:31 10° NNW
CZ-4C R/B 3.2 08:20:01 69° NNW 08:21:28 88° ENE 08:30:34 10° SSE
BREEZE-M DEB (TANK) 4.5 08:35:29 56° ESE 08:35:29 56° ESE 08:42:14 10° SE
Ariane H10-3 2.7 08:37:46 41° ESE 08:37:46 41° ESE 08:41:30 10° E
GPS 2-15 Rocket1 4.2 08:39:19 40° ENE 08:39:19 40° ENE 08:42:27 10° E
Cosmos 2369 3.9 08:38:29 10° S 08:44:10 70° ESE 08:49:49 10° NNE
Delta 168 4.2 08:46:27 32° E 08:46:27 32° E 08:48:55 10° ENE
SL-08 R/B 4.4 08:41:07 10° S 08:47:23 71° W 08:48:25 60° NW
Cosmos 1934 Rocket 3.8 08:44:07 10° S 08:50:10 87° E 08:56:15 10° N
SL-16 R/B 2.5 08:44:06 10° SSE 08:50:18 80° ENE 08:53:58 26° N
BLOCK DM-SL R/B 4.5 07:46:56 10° W 08:50:40 74° N 08:55:31 10° E
Intelsat 5-3 Rocket 4.3 08:54:20 23° NNE 08:54:20 23° NNE 08:57:56 10° NE
SL-16 R/B 4.4 08:49:20 10° SSE 08:53:54 25° ESE 08:58:26 10° NE
ARIANE 44L R/B 4.2 08:53:29 31° N 08:54:23 33° NNE 09:07:00 10° E
SWIFT 4.5 08:58:55 12° NE 08:58:55 12° NE 08:59:42 10° NE
IRS-1D 4.0 08:54:41 10° NNE 08:59:36 57° ESE 09:04:27 10° S
Delta 202 3.8 08:58:41 50° NNW 08:59:42 59° NNE 09:05:50 10° E
ARIANE 5 R/B 1.2 09:05:10 76° SSW 09:05:17 77° S 09:08:43 10° E
Meteor 2-14 Rocket 4.3 09:02:30 31° NNW 09:05:27 67° W 09:11:29 10° S
Palapa B4 Rocket 4.2 09:02:37 40° WNW 09:06:00 80° SSW 09:11:48 10° ESE
Cosmos 1814 Rocket 3.8 09:07:16 30° NNW 09:09:49 89° W 09:14:58 10° SSE
Cosmos 1605 Rocket 4.4 09:03:45 10° S 09:10:04 68° E 09:16:24 10° N
NOAA 12 4.0 09:06:53 10° NNE 09:12:11 89° W 09:17:31 10° SSW
Cosmos 1727 Rocket 3.9 09:08:49 10° N 09:15:03 83° W 09:21:22 10° S
GRACE-FO 1 4.3 09:14:46 10° S 09:18:14 74° W 09:18:50 57° NNW
GRACE-FO 2 4.3 09:15:12 10° S 09:18:39 73° W 09:19:15 56° NNW
Cosmos 158 Rocket 3.9 09:17:03 23° NNW 09:20:22 71° WSW 09:25:41 10° S
Chandra Rocket (1) 4.5 09:16:28 10° SW 09:21:01 46° SE 09:36:16 10° ENE
Cosmos 1441 Rocket 4.3 09:24:41 24° SW 09:24:41 24° SW 09:26:22 10° SSW
deb Ariane 4.3 09:14:27 20° W 09:23:20 69° S 09:27:04 10° E
Cosmos 372 Rocket 4.1 09:31:36 10° S 09:36:39 73° ESE 09:41:40 10° NNE
Meteor 2-21 Rocket 4.3 09:31:55 10° N 09:37:55 72° W 09:43:57 10° S
Cosmos 1898 Rocket 4.2 09:35:21 10° S 09:40:28 57° ESE 09:45:37 10° NNE
EPKM 3.9 09:43:58 19° W 09:46:32 61° NNW 10:00:06 10° ENE
Aureole 3 2.9 09:42:50 10° NNW 09:46:39 64° W 09:49:54 10° S
Hubble Space Telescope 2.4 09:46:59 15° NW 09:47:28 15° NNW 09:49:40 10° N
Cosmos 1869 3.7 09:44:38 10° S 09:48:10 57° E 09:51:40 10° NNE
Cosmos 2278 3.8 09:43:52 10° SSW 09:49:32 82° ESE 09:55:10 10° NNE
Cosmos 1674 Rocket 4.5 09:46:53 10° N 09:51:06 51° E 09:55:19 10° SSE
Cosmos 2242 Rocket 3.7 09:46:54 10° NNW 09:51:17 56° W 09:55:44 10° S
Gbstr 26 Del rocket 3.7 09:45:25 11° NW 09:51:28 67° SW 09:56:37 10° SSE
Cosmos 1937 Rocket 4.3 09:50:35 10° S 09:55:35 56° ESE 10:00:35 10° NNE
H-2A DEB 4.1 09:53:27 13° WSW 09:55:42 53° NNW 09:59:19 10° NE
Cosmos 2360 Rocket 3.2 09:53:12 10° S 09:58:40 51° ESE 10:04:04 10° NNE
Meteor 1-11 4.3 09:52:58 10° N 09:58:49 90° ESE 10:04:36 10° S
EO 1 Delta rocket 4.1 09:56:38 10° NNE 10:01:45 76° E 10:06:23 10° S
Intercosmos 25 Rocket 4.3 10:02:55 10° N 10:06:48 70° E 10:12:56 10° S
SMAP 4.2 10:02:42 10° NNE 10:07:11 50° ESE 10:11:41 10° S
Cosmos 1782 Rocket 3.7 10:05:31 10° SSW 10:09:44 51° W 10:13:57 10° N
FUSE 4.2 10:05:22 10° NW 10:10:37 66° NNE 10:15:53 10° ESE
Cosmos 2297 Rocket 2.3 10:05:18 10° NNW 10:10:47 57° WSW 10:16:19 10° S
Ariane 42L R/B 4.1 10:12:36 10° WNW 10:16:38 24° N 10:19:54 10° NE
